星链-37769(STARLINK-37769)

导读

STARLINK-37769(北美防空司令部编目号NORAD 69834)是美国太空探索技术公司(SpaceX)星链(Starlink)低轨互联网星座的组网卫星之一,于2026年6月前后由猎鹰9号火箭发射入轨,当前运行于倾角约53°的近地轨道,轨道周期约91分钟,主要为全球提供低延迟宽带互联网接入服务,是SpaceX扩容星链星座、承载全球互联网与AI相关大带宽低时延连接需求的第三代/迭代组网节点之一,其轨道状态由NORAD持续监测,用于碰撞预警与太空交通管理。

基本信息
目录编号:
69834
目录名称:
STARLINK-37769
国际标识:
2026-154R
轨道中心:
EARTH
卫星名称:
星链-37769
卫星全名:
星链-37769(STARLINK-37769)
卫星状态:
在轨 (已飞行61 天)
发射日期:
2026-07-05 UTC
国别 :
美国 (US)
星等 :
--
轨道信息
数据来源 国际轨道数据
星历时间: 2026-09-03T19:02:01+0800
18小时前
查看轨道信息
半长轴: 6840.849km
偏心率: 0.0001765
轨道倾角: 53.161°
近地点辐角 104.252°
升交点赤经 51.266°
平近点角 255.868°
近地点: 461.504km
远地点: 463.92km
周期: 93.848分钟
每日圈数: 15.343971
详细信息
固有亮度:
5
最大亮度:
2.5
卫星平台:
Starlink V1.0
覆盖范围:
全球
运营商:
太空探索技术公司
运营商所在国:
美国
制造商(研发单位):
太空探索技术公司
制造商所在国:
美国
使用方式:
暂无
卫星简介
Starlink 计划是 SpaceX 推出的全球卫星互联网项目,通过发射低轨道卫星,为全球尤其是偏远地区提供高速、低延迟的互联网服务。自 2019 年起,Starlink 已部署数千颗卫星,旨在缩小全球数字鸿沟,推动互联网普及。该项目还为军事、航空等行业提供通信支持,带来广泛经济效益。
2D轨道图
3D轨道图
轨道高度分析图
轨道倾角分析图
轨道综合分析图
查看轨道综合分析图
交会数据列表
事件ID 空间交会对象 最接近时刻(TCA) 交会距离 交会风险概率(CRP) 交会风险指数(CRI) 操作
CDM_260904-214105-247506-983421
2026-09-04T
21:41:58+0000
0.352 km
远距离
2.929887E-4 高风险 0.84
CDM_260827-182206-345206-983421
2026-08-27T
18:22:43+0000
0.611 km
远距离
3.884342E-5 中风险 0.67
CDM_260904-095805-247506-983422
2026-09-04T
09:58:32+0000
0.875 km
远距离
2.696343E-5 中风险 0.64
CDM_260904-082405-247506-983421
2026-09-04T
08:24:44+0000
1.655 km
极远距离
3.184638E-6 低风险 0.45
CDM_260827-204306-345206-983421
2026-08-27T
20:43:24+0000
1.336 km
极远距离
2.90332E-6 低风险 0.44
CDM_260904-004305-742406-983423
OBJECT A (57424)
2026-09-04T
00:43:25+0000
2.171 km
极远距离
2.004713E-6 低风险 0.41
CDM_260904-002605-420406-983421
2026-09-04T
00:26:35+0000
2.779 km
极远距离
1.286592E-6 低风险 0.37
CDM_260904-200805-247506-983421
2026-09-04T
20:08:11+0000
2.779 km
极远距离
1.019376E-6 低风险 0.35
CDM_260904-180305-941306-983421
2026-09-04T
18:03:25+0000
2.974 km
极远距离
8.657122E-7 极低风险 0.34